When you browse on this site, cookies collect data to enhance your experience and personalize the content and advertising you see.
Visit our Privacy Policy to learn more. By continuing to use the site, you agree to this use of cookies and data.
  • In France
  • List of Countries
  • For 7 days
  • Water Temperature
  • Weather Map
  • Weather Widgets
  • user-avatar
    Login

    Hourly Weather Holhol

    Today, 26 August, Monday

    Time Temperature Precipitation Wind Pressure Humidity
    00:00 +35°C° 0 mm 2 mps 710 mmHg 41%
    01:00 +35°C° 0 mm 2 mps 710 mmHg 42%
    02:00 +35°C° 0 mm 3 mps 710 mmHg 43%
    03:00 +34°C° 0 mm 3 mps 709 mmHg 43%
    04:00 +34°C° 0 mm 3 mps 710 mmHg 42%
    05:00 +34°C° 0 mm 4 mps 710 mmHg 41%
    06:00 +34°C° 0 mm 4 mps 711 mmHg 40%
    07:00 +35°C° 0.1 mm 6 mps 711 mmHg 38%
    08:00 +37°C° 0.1 mm 8 mps 712 mmHg 36%
    09:00 +38°C° 0.1 mm 9 mps 712 mmHg 34%
    10:00 +39°C° 0 mm 9 mps 712 mmHg 31%
    11:00 +40°C° 0 mm 8 mps 712 mmHg 29%
    12:00 +41°C° 0 mm 8 mps 711 mmHg 27%
    13:00 +43°C° 0 mm 7 mps 711 mmHg 25%
    14:00 +43°C° 0 mm 7 mps 710 mmHg 24%
    15:00 +44°C° 0 mm 6 mps 709 mmHg 23%
    16:00 +42°C° 0 mm 5 mps 709 mmHg 24%
    17:00 +41°C° 0 mm 4 mps 709 mmHg 26%
    18:00 +39°C° 0 mm 3 mps 709 mmHg 28%
    19:00 +38°C° 0 mm 3 mps 709 mmHg 32%
    20:00 +37°C° 0 mm 3 mps 709 mmHg 36%
    21:00 +35°C° 0 mm 2 mps 710 mmHg 39%
    22:00 +35°C° 0 mm 2 mps 710 mmHg 40%
    23:00 +35°C° 0 mm 2 mps 710 mmHg 41%

    Tomorrow, 27 August, Tuesday

    Time Temperature Precipitation Wind Pressure Humidity
    00:00 +34°C° 0 mm 1 mps 711 mmHg 42%
    01:00 +35°C° 0 mm 3 mps 710 mmHg 41%
    02:00 +35°C° 0 mm 4 mps 710 mmHg 40%
    03:00 +35°C° 0 mm 5 mps 710 mmHg 39%
    04:00 +34°C° 0.2 mm 6 mps 710 mmHg 39%
    05:00 +33°C° 0.2 mm 7 mps 710 mmHg 40%
    06:00 +33°C° 0.2 mm 8 mps 710 mmHg 41%
    07:00 +34°C° 0 mm 8 mps 711 mmHg 38%
    08:00 +35°C° 0 mm 9 mps 711 mmHg 34%
    09:00 +38°C° 0 mm 10 mps 712 mmHg 31%
    10:00 +39°C° 0 mm 9 mps 712 mmHg 29%
    11:00 +40°C° 0 mm 9 mps 711 mmHg 26%
    12:00 +42°C° 0 mm 9 mps 711 mmHg 24%
    13:00 +43°C° 0 mm 8 mps 710 mmHg 23%
    14:00 +43°C° 0 mm 7 mps 710 mmHg 22%
    15:00 +44°C° 0 mm 6 mps 709 mmHg 20%
    16:00 +42°C° 0 mm 6 mps 709 mmHg 22%
    17:00 +41°C° 0 mm 5 mps 708 mmHg 24%
    18:00 +40°C° 0 mm 5 mps 708 mmHg 26%
    19:00 +39°C° 0 mm 5 mps 709 mmHg 28%
    20:00 +39°C° 0 mm 5 mps 709 mmHg 29%
    21:00 +37°C° 0 mm 5 mps 710 mmHg 30%
    22:00 +36°C° 0 mm 4 mps 710 mmHg 31%
    23:00 +36°C° 0 mm 3 mps 710 mmHg 32%

    Day after tomorrow, 28 August, Wednesday

    Time Temperature Precipitation Wind Pressure Humidity
    00:00 +35°C° 0 mm 3 mps 710 mmHg 34%
    01:00 +35°C° 0 mm 2 mps 710 mmHg 36%
    02:00 +34°C° 0 mm 2 mps 710 mmHg 38%
    03:00 +34°C° 0 mm 2 mps 709 mmHg 39%
    04:00 +33°C° 0 mm 3 mps 710 mmHg 39%
    05:00 +33°C° 0 mm 5 mps 710 mmHg 38%
    06:00 +33°C° 0 mm 6 mps 710 mmHg 38%
    07:00 +34°C° 0 mm 6 mps 711 mmHg 37%
    08:00 +35°C° 0 mm 7 mps 711 mmHg 36%
    09:00 +36°C° 0 mm 7 mps 712 mmHg 35%
    10:00 +38°C° 0 mm 7 mps 711 mmHg 32%
    11:00 +39°C° 0 mm 6 mps 711 mmHg 29%
    12:00 +40°C° 0 mm 6 mps 711 mmHg 26%
    13:00 +41°C° 0 mm 5 mps 710 mmHg 25%
    14:00 +41°C° 0 mm 5 mps 710 mmHg 24%
    15:00 +42°C° 0 mm 4 mps 709 mmHg 23%
    16:00 +40°C° 0.1 mm 4 mps 709 mmHg 26%
    17:00 +38°C° 0.1 mm 3 mps 708 mmHg 30%
    18:00 +37°C° 0.1 mm 3 mps 708 mmHg 33%
    19:00 +37°C° 0 mm 3 mps 709 mmHg 32%
    20:00 +36°C° 0 mm 3 mps 709 mmHg 31%
    21:00 +36°C° 0 mm 3 mps 710 mmHg 31%
    22:00 +36°C° 0 mm 3 mps 710 mmHg 31%
    23:00 +35°C° 0 mm 3 mps 710 mmHg 32%

    29 August, Thursday

    Time Temperature Precipitation Wind Pressure Humidity
    00:00 +35°C° 0 mm 2 mps 710 mmHg 33%
    01:00 +35°C° 0 mm 2 mps 710 mmHg 34%
    02:00 +34°C° 0 mm 2 mps 710 mmHg 36%
    03:00 +34°C° 0 mm 2 mps 710 mmHg 38%
    04:00 +33°C° 0 mm 3 mps 710 mmHg 40%
    05:00 +33°C° 0 mm 4 mps 710 mmHg 42%
    06:00 +32°C° 0 mm 5 mps 711 mmHg 44%
    07:00 +34°C° 0 mm 5 mps 711 mmHg 41%
    08:00 +35°C° 0 mm 6 mps 712 mmHg 37%
    09:00 +36°C° 0 mm 6 mps 712 mmHg 33%
    10:00 +38°C° 0 mm 6 mps 712 mmHg 30%
    11:00 +39°C° 0 mm 6 mps 711 mmHg 27%
    12:00 +41°C° 0 mm 5 mps 711 mmHg 23%
    13:00 +41°C° 0 mm 5 mps 710 mmHg 22%
    14:00 +41°C° 0 mm 5 mps 710 mmHg 21%
    15:00 +42°C° 0 mm 4 mps 709 mmHg 20%
    16:00 +41°C° 0 mm 4 mps 709 mmHg 24%
    17:00 +38°C° 0 mm 4 mps 708 mmHg 27%
    18:00 +37°C° 0 mm 4 mps 708 mmHg 31%
    19:00 +36°C° 0 mm 3 mps 709 mmHg 33%
    20:00 +36°C° 0 mm 2 mps 709 mmHg 35%
    21:00 +34°C° 0 mm 1 mps 709 mmHg 37%
    22:00 +35°C° 0 mm 2 mps 709 mmHg 36%
    23:00 +35°C° 0 mm 2 mps 709 mmHg 36%

    30 August, Friday

    Time Temperature Precipitation Wind Pressure Humidity
    00:00 +35°C° 0 mm 2 mps 709 mmHg 36%
    01:00 +34°C° 0 mm 2 mps 709 mmHg 37%
    02:00 +34°C° 0 mm 2 mps 709 mmHg 39%
    03:00 +32°C° 0 mm 2 mps 709 mmHg 40%
    04:00 +32°C° 0 mm 2 mps 709 mmHg 40%
    05:00 +32°C° 0 mm 2 mps 709 mmHg 39%
    06:00 +32°C° 0 mm 2 mps 710 mmHg 39%
    07:00 +34°C° 0 mm 3 mps 710 mmHg 36%
    08:00 +36°C° 0 mm 4 mps 711 mmHg 33%
    09:00 +37°C° 0 mm 5 mps 711 mmHg 30%
    10:00 +39°C° 0 mm 5 mps 711 mmHg 28%
    11:00 +40°C° 0 mm 5 mps 711 mmHg 25%
    12:00 +41°C° 0 mm 5 mps 710 mmHg 23%
    13:00 +42°C° 0 mm 4 mps 709 mmHg 22%
    14:00 +42°C° 0 mm 4 mps 709 mmHg 21%
    15:00 +42°C° 0 mm 3 mps 708 mmHg 20%
    16:00 +40°C° 0 mm 3 mps 708 mmHg 23%
    17:00 +40°C° 0 mm 4 mps 708 mmHg 26%
    18:00 +37°C° 0 mm 4 mps 707 mmHg 29%
    19:00 +37°C° 0 mm 3 mps 708 mmHg 31%
    20:00 +36°C° 0 mm 3 mps 708 mmHg 32%
    21:00 +35°C° 0 mm 2 mps 708 mmHg 34%
    22:00 +35°C° 0 mm 2 mps 708 mmHg 35%
    23:00 +35°C° 0 mm 2 mps 708 mmHg 35%

    31 August, Saturday

    Time Temperature Precipitation Wind Pressure Humidity
    00:00 +35°C° 0 mm 3 mps 708 mmHg 36%
    01:00 +34°C° 0 mm 2 mps 708 mmHg 37%
    02:00 +34°C° 0 mm 2 mps 708 mmHg 37%
    03:00 +33°C° 0 mm 1 mps 708 mmHg 38%
    04:00 +33°C° 0 mm 1 mps 708 mmHg 38%
    05:00 +32°C° 0 mm 1 mps 708 mmHg 38%
    06:00 +32°C° 0 mm 1 mps 709 mmHg 38%
    07:00 +34°C° 0 mm 2 mps 709 mmHg 35%
    08:00 +36°C° 0 mm 2 mps 710 mmHg 32%
    09:00 +37°C° 0 mm 3 mps 710 mmHg 28%
    10:00 +38°C° 0 mm 3 mps 710 mmHg 26%
    11:00 +39°C° 0 mm 3 mps 709 mmHg 24%
    12:00 +41°C° 0 mm 4 mps 709 mmHg 23%
    13:00 +41°C° 0 mm 4 mps 708 mmHg 23%
    14:00 +41°C° 0 mm 4 mps 707 mmHg 23%
    15:00 +42°C° 0 mm 4 mps 707 mmHg 23%
    16:00 +40°C° 0 mm 4 mps 707 mmHg 26%
    17:00 +38°C° 0 mm 4 mps 707 mmHg 29%
    18:00 +37°C° 0 mm 5 mps 706 mmHg 32%
    19:00 +37°C° 0 mm 4 mps 707 mmHg 32%
    20:00 +36°C° 0 mm 3 mps 707 mmHg 32%
    21:00 +36°C° 0 mm 2 mps 708 mmHg 33%
    22:00 +36°C° 0 mm 2 mps 708 mmHg 33%
    23:00 +35°C° 0 mm 2 mps 708 mmHg 34%
    Show more